Location: Unspecified
(32.5099°N, 80.0190°W)
Time: 05:50:38
(UTC-04:00)

CZ-3 Stage 3 - Visible Passes

Search period start: 28 May 2016 00:00
Search period end: 07 June 2016 00:00
Orbit: 421 x 34782 km, 30.4° (Epoch: 26 May)

Date Brightness Start Highest point End Pass type
(mag) Time Alt. Az. Time Alt. Az. Time Alt. Az.
30 May 3.1 03:09:33 10° W 03:27:56 76° S 03:31:43 10° E visible
30 May 6.1 14:54:56 10° S 23:43:09 58° SSE 23:55:49 10° E visible
02 Jun 3.1 03:01:05 10° W 03:19:32 76° S 03:23:20 10° E visible
02 Jun 6.1 14:48:35 10° S 23:34:50 59° SSE 23:47:28 10° E visible
05 Jun 3.1 02:52:38 10° W 03:11:09 76° S 03:14:57 10° E visible
05 Jun 6.0 14:41:55 10° S 23:26:31 61° SSE 23:39:06 10° E visible
